STARLINK-4266, 52869

Orbit data source: Space-Track

STARLINK-4266, 52869 is a payload satellite owned by SpaceX/Seattle (US) in LEO that was launched on Fri, 17 Jun 2022 UTC via an FALCON 9 launch vehicle from the Air Force Eastern Test Range (AFETR). Payload-class satellites include a variety of spacecraft equipped with specific instruments for various scientific and technological missions. These include communications satellites like Starlink; space stations such as the ISS; scientific satellites like the Hubble; Earth observation satellites from companies like Planet Labs, Umbra, and HawkEye 360; GPS; miniature CubeSats for education and research; and military/defense satellites.

Loading next visibility...
Identifier
52869, 2022-062AR
Orbit
LEO
Country
Flag of USUS
Related business
Manufacturer
SpaceX/Seattle
Mission
Operational Commercial Communications
Bus & Motor
STARLINK, Unknown motor
Mass
297 kg wet, ~275 kg dry
Launch date (UTC)
2022-06-17 (3 years ago)
Launch vehicle
FALCON 9
Launch site
Air Force Eastern Test Range (AFETR)
Object type
Payload
Rocket body
Debris
Shape & HBR
Box + 1 Pan, 10.1 m
Radar Cross Section
13.562 m², Large (>1 m²)

Expand to show TLE details & history
Last TLE update: 1 day ago

TLE from 1 day ago
0 STARLINK-4266
1 52869U 22062AR  25348.52306034 -.00001071  00000-0 -49198-4 0  9993
2 52869  53.2179  36.4483 0001517  95.9395 264.1771 15.08824982193201
Epoch: 2025-12-14T12:33Z
TLE epoch observation values (Epoch: 2025-12-14T12:33:12.413Z)
Latitude
0.00006°
Longitude
124.71186°
Altitude
540.793 km
Speed
7.593 km/s
True Right ascension
02h 25m 47s
True Declination
0° 00' 00"
Sunlit
Object was in full shadow at epoch
Visualization orbit readout
Latitude
Unknown
Longitude
Unknown
Altitude
Unknown
Speed
Unknown
Apparent Right ascension
Unknown
Apparent Declination
Unknown
Sunlit
N/A
Visualization observer readout
Local Sidereal Time
17:25:42
Azimuth
Unknown
Elevation
Unknown
Doppler factor
Unknown
Orbital elements
Apogee altitude
541.084 km
Perigee altitude
538.985 km
Semi-major axis
6,918.171 km
Eccentricity
0.00015
Inclination
53.2179°
RAAN
36.4483°
Arg. of periapsis
95.9395°
True anomaly
264.15981°
Mean anomaly
264.1771°
Eccentric anomaly
264.16845°
Mean motion
3.77187 °/min
Orbital period
95.44 mins
BSTAR
-0.000049198
Loading maneuver chart data...
Computing Atmospheric mass density...
Loading historical data...
Loading historical data...
Loading historical data...
Loading historical data...
Loading historical data...
Loading historical data...
Loading historical data...

Documentation

Showing up to 5 results
|